User: anonymous   Login
Location: Unspecified
(0.0000°N, 0.0000°E)
Time: 18:45:44
(UTC+01:00)
Language:

ARIANE 44L R/B - Orbit

View from above orbital plane
View from above orbital plane
View from above satellite
View from above satellite

Ground track
Ground track

The orbit data is extracted from the following two-line orbital elements,

1 26901U 01039B   15087.27326476  .00008833  00000-0  25064-2 0  9990
2 26901 007.0282 187.2518 6960871 245.1083 022.0339 02.68701291121246
Epoch (UTC): 28 March 2015 06:33:30
Eccentricity: 0.6960871
inclination: 7.0282°
perigee height: 264 km
apogee height: 30690 km
right ascension of ascending node: 187.2518°
argument of perigee: 245.1083°
revolutions per day: 2.68701291
mean anomaly at epoch: 22.0339°
orbit number at epoch: 12124

The dashed part of the orbit path shows where the satellite is in the earth's shadow,  

DLR